Flag for U.S.A. Weather past 2 weeks in Billings, Montana, U.S.A.

79 °F

Scattered clouds.

Feels Like: 78 °F
Forecast: 53 / 83 °F
Wind: 15 mph from Southwest

Location: Billings Logan International Airport

Current Time: Oct 9, 2015 at 4:49:20 PM

Latest Report: Oct 9, 2015 at 3:53 PM

Visibility: 10 mi

Pressure: 29.94 "Hg (26.88 "Hg at 946m altitude)

Humidity: 27%

Dew point: 42 °F

Location of BillingsLocation

Historic Weather in Billings — Graph


Billings temperature yesterday

Maximum temperature yesterday: 66 °F (at 3:53 PM)
Minimum temperature yesterday: 53 °F (at 5:53 AM)
Average temperature yesterday: 59 °F

Past Weeks' High & Low Weather Summary

High94 °F (Sep 25, 2:53 PM)97% (Oct 3, 4:53 AM)30.25 "Hg (Oct 3, 4:53 AM)
Low37 °F (Oct 5, 6:53 AM)8% (Sep 25, 3:53 PM)29.63 "Hg (Sep 26, 4:53 PM)
Average60 °F51%30.01 "Hg
* Reported Sep 24 3:53 PM — Oct 9 3:53 PM, Billings, Weather by CustomWeather, © 2015

Note: Actual official high and low records may vary slightly from our data, if they occured in-between our weather recording intervals... More about our weather records


Billings weather history for previous 24 hours

Time TempWeatherWind HumidityBarometerVisibility
3:53 PM
Fri, Oct 9
79 °FScattered clouds.15 mph27%29.94 "Hg10 mi
2:53 PM79 °FScattered clouds.22 mph27%29.94 "Hg10 mi
1:53 PM77 °FScattered clouds.21 mph28%29.98 "Hg10 mi
12:53 PM73 °FScattered clouds.23 mph37%30.01 "Hg10 mi
11:53 AM71 °FPartly sunny.23 mph42%30.03 "Hg10 mi
10:53 AM66 °FScattered clouds.20 mph52%30.07 "Hg10 mi
9:53 AM62 °FPartly sunny.22 mph58%30.10 "Hg10 mi
8:53 AM60 °FPartly sunny.15 mph62%30.11 "Hg10 mi
7:53 AM56 °FPartly cloudy.13 mph72%30.13 "Hg10 mi
6:53 AM56 °FPassing clouds.9 mph72%30.15 "Hg10 mi
5:53 AM55 °FPartly cloudy.8 mph72%30.16 "Hg10 mi
4:53 AM56 °FPassing clouds.12 mph70%30.15 "Hg10 mi
3:53 AM53 °FPassing clouds.9 mph80%30.17 "Hg10 mi
2:53 AM52 °FPassing clouds.7 mph83%30.20 "Hg10 mi
1:53 AM53 °FPassing clouds.7 mph80%30.20 "Hg10 mi
12:53 AM56 °FClear.10 mph72%30.21 "Hg10 mi
11:53 PM
Thu, Oct 8
56 °FClear.9 mph72%30.22 "Hg10 mi
10:53 PM58 °FClear.10 mph67%30.24 "Hg10 mi
9:53 PM59 °FClear.7 mph64%30.24 "Hg10 mi
8:53 PM62 °FClear.5 mph58%30.24 "Hg10 mi
7:53 PM63 °FPassing clouds.5 mph56%30.24 "Hg10 mi
6:53 PM64 °FScattered clouds.3 mph54%30.23 "Hg10 mi
5:53 PM65 °FScattered clouds.5 mph52%30.22 "Hg10 mi
4:53 PM66 °FScattered clouds.6 mph52%30.22 "Hg10 mi
Weather by CustomWeather, © 2015

See weather overviewHow to use our weather pages